Weather History for Craig, CO

Change the Weather History Date:

Friday, December 7, 2012

  Actual Average Record
Temperature  
Mean Temperature 34 °F 20 °F  
Max Temperature 42 °F 33 °F 53 °F (2008)
Min Temperature 26 °F 8 °F -17 °F (2005)
Degree Days  
Heating Degree Days 31 45  
Month to date heating degree days 209 305  
Since 1 July heating degree days 1928 2390  
Cooling Degree Days 0 0  
Month to date cooling degree days 0 0  
Year to date cooling degree days 344 142  
Moisture  
Dew Point 23 °F    
Average Humidity 66    
Maximum Humidity 92    
Minimum Humidity 40    
Precipitation  
Precipitation T in 0.03 in 0.43 in (2007)
Month to date precipitation 0.24 0.26  
Year to date precipitation 6.37 15.32  
Sea Level Pressure  
Sea Level Pressure 30.00 in    
Wind  
Wind Speed 3 mph (WNW)    
Max Wind Speed 15 mph    
Max Gust Speed 17 mph    
Visibility 10 miles    
Events      
T = Trace of Precipitation, MM = Missing Value Source: NWS Daily Summary

Daily Weather History Graph

Daily Weather History Graph

Search for Another Location

Airport:

Trip Planner

Search our weather history database for the weather conditions in past years. The results will help you decide how hot, cold, wet, or windy it might be!

Date:

Astronomy

Dec. 07, 2012 Rise Set
Actual Time 7:20 AM MST 4:43 PM MST
Civil Twilight 6:49 AM MST 5:13 PM MST
Nautical Twilight 6:15 AM MST 5:47 PM MST
Astronomical Twilight 5:42 AM MST 6:20 PM MST
Moon 12:41 AM MST (12/7) 12:42 PM MST (12/7)
Length of Visible Light 10h 23m
Length of Day
9h 22m
Last Quarter, 38% of the Moon is Illuminated
Dec 7
Last Quarter
Dec 13
New
Dec 19
First Quarter
Dec 28
Full
Jan 4
Last Quarter

Hourly Weather History & Observations

Time (MST) Temp. Windchill Dew Point Humidity Pressure Visibility Wind Dir Wind Speed Gust Speed Precip Events Conditions
12:53 AM 28.9 °F - 26.1 °F 89% 29.96 in 10.0 mi Calm Calm - N/A   Overcast
1:53 AM 28.9 °F 25.2 °F 25.0 °F 85% 29.96 in 10.0 mi South 3.5 mph - N/A   Scattered Clouds
2:53 AM 30.0 °F - 26.1 °F 85% 29.94 in 10.0 mi Calm Calm - N/A   Overcast
3:53 AM 28.9 °F - 27.0 °F 92% 29.96 in 10.0 mi Calm Calm - N/A   Mostly Cloudy
4:53 AM 30.9 °F - 27.0 °F 85% 29.98 in 10.0 mi Calm Calm - N/A   Overcast
5:53 AM 30.0 °F - 27.0 °F 88% 30.01 in 10.0 mi Calm Calm - N/A   Overcast
6:53 AM 30.0 °F - 27.0 °F 88% 30.02 in 10.0 mi Calm Calm - N/A   Overcast
7:53 AM 32.0 °F - 26.1 °F 79% 30.03 in 10.0 mi Calm Calm - N/A   Mostly Cloudy
8:53 AM 33.1 °F - 28.9 °F 85% 30.04 in 10.0 mi Calm Calm - N/A   Mostly Cloudy
9:53 AM 36.0 °F 32.1 °F 28.9 °F 76% 30.04 in 10.0 mi WNW 4.6 mph - N/A   Overcast
10:53 AM 36.0 °F 33.3 °F 26.1 °F 67% 30.04 in 10.0 mi SW 3.5 mph - N/A   Overcast
11:53 AM 36.0 °F 33.3 °F 23.0 °F 59% 30.02 in 10.0 mi NNW 3.5 mph - 0.00 in   Overcast
12:53 PM 37.0 °F 33.3 °F 24.1 °F 59% 30.01 in 10.0 mi South 4.6 mph - 0.00 in   Overcast
1:53 PM 41.0 °F 33.9 °F 25.0 °F 53% 29.97 in 10.0 mi West 12.7 mph - N/A   Overcast
2:53 PM 39.9 °F 32.1 °F 17.1 °F 40% 29.96 in 10.0 mi West 13.8 mph - N/A   Overcast
3:53 PM 37.9 °F 30.9 °F 19.0 °F 47% 29.97 in 10.0 mi NNW 10.4 mph - N/A   Overcast
4:53 PM 36.0 °F 29.6 °F 18.0 °F 48% 29.99 in 10.0 mi North 8.1 mph - N/A   Overcast
5:53 PM 35.6 °F - 17.6 °F 48% 29.95 in 10.0 mi Calm Calm - N/A   Overcast
6:53 PM 35.6 °F 32.8 °F 15.8 °F 44% 29.97 in 10.0 mi NW 3.5 mph - N/A   Overcast
7:53 PM 33.1 °F 30.0 °F 16.0 °F 50% 30.02 in 10.0 mi North 3.5 mph - N/A   Overcast
8:53 PM 30.0 °F - 18.0 °F 61% 30.03 in 10.0 mi Calm Calm - N/A   Overcast
9:53 PM 26.1 °F - 19.0 °F 75% 30.02 in 10.0 mi Calm Calm - N/A   Partly Cloudy
10:53 PM 27.0 °F - 19.0 °F 72% 30.01 in 10.0 mi Calm Calm - N/A   Clear
11:53 PM 27.0 °F - 19.9 °F 75% 29.99 in 10.0 mi Calm Calm - N/A   Mostly Cloudy